AUA995F LOWW-EKCH

Flight info

Callsign AUA995F
Flight time N/A
Altitude 36000
Route LANUX DCT VLM DCT HDO M725 GERGA T239 PEROM T298 MONAK
Aircraft B738/M-SDE2E3FGHIRWXY/LB1

Departure

Time 2026-04-25 07:39
Airport Vienna International Airport (LOWW)

Arrival

Time N/A
Airport Copenhagen Kastrup Airport (EKCH)
Time Latitude Longitude Altitude Speed Heading
2026-04-25 07:22 48.11467 16.57018 606 ft 0 kts 206°
2026-04-25 07:24 48.11446 16.57003 606 ft 4 kts 206°
2026-04-25 07:24 48.11427 16.56994 606 ft 2 kts 189°
2026-04-25 07:25 48.11415 16.56996 606 ft 5 kts 159°
2026-04-25 07:25 48.11385 16.57016 606 ft 3 kts 153°
2026-04-25 07:25 48.11350 16.57043 606 ft 6 kts 167°
2026-04-25 07:25 48.11311 16.57062 606 ft 6 kts 154°
2026-04-25 07:26 48.11266 16.57127 605 ft 10 kts 128°
2026-04-25 07:26 48.11227 16.57216 604 ft 9 kts 116°
2026-04-25 07:26 48.11196 16.57316 603 ft 11 kts 118°
2026-04-25 07:26 48.11161 16.57423 601 ft 11 kts 116°
2026-04-25 07:27 48.11122 16.57538 600 ft 12 kts 116°
2026-04-25 07:27 48.11084 16.57627 599 ft 8 kts 151°
2026-04-25 07:27 48.11029 16.57632 600 ft 7 kts 198°
2026-04-25 07:27 48.11012 16.57623 600 ft 0 kts 201°
2026-04-25 07:37 48.11005 16.57619 600 ft 3 kts 199°
2026-04-25 07:38 48.10983 16.57604 600 ft 6 kts 210°
2026-04-25 07:38 48.10944 16.57566 601 ft 8 kts 234°
2026-04-25 07:38 48.10957 16.57408 602 ft 39 kts 295°
2026-04-25 07:38 48.11192 16.56692 603 ft 112 kts 296°
2026-04-25 07:39 48.11635 16.55327 586 ft 174 kts 297°
2026-04-25 07:39 48.12235 16.53597 908 ft 202 kts 301°
2026-04-25 07:39 48.12886 16.51570 1433 ft 234 kts 284°
2026-04-25 07:39 48.12788 16.49090 1777 ft 245 kts 249°
2026-04-25 07:40 48.11725 16.47276 2157 ft 241 kts 210°
2026-04-25 07:40 48.10039 16.46814 2581 ft 251 kts 178°
2026-04-25 07:40 48.08316 16.47043 2995 ft 251 kts 188°
2026-04-25 07:40 48.06716 16.46228 3422 ft 238 kts 225°
2026-04-25 07:41 48.05842 16.44262 3877 ft 228 kts 262°
2026-04-25 07:41 48.05664 16.41950 4349 ft 227 kts 266°
2026-04-25 07:41 48.05302 16.39651 4786 ft 233 kts 255°
2026-04-25 07:41 48.04696 16.37373 5246 ft 246 kts 251°
2026-04-25 07:42 48.03995 16.35012 5685 ft 247 kts 251°
2026-04-25 07:42 48.03379 16.32655 6124 ft 244 kts 262°
2026-04-25 07:42 48.03326 16.30145 6576 ft 243 kts 277°
2026-04-25 07:42 48.03478 16.27623 7033 ft 247 kts 277°
2026-04-25 07:43 48.03590 16.25068 7474 ft 250 kts 276°
2026-04-25 07:43 48.03730 16.22504 7916 ft 251 kts 283°
2026-04-25 07:43 48.04325 16.20072 8353 ft 250 kts 304°
2026-04-25 07:43 48.05411 16.18021 8815 ft 253 kts 311°
2026-04-25 07:44 48.06543 16.16004 9264 ft 255 kts 310°
2026-04-25 07:44 48.07655 16.13954 9704 ft 257 kts 310°
2026-04-25 07:44 48.08785 16.11861 9900 ft 265 kts 310°
2026-04-25 07:44 48.09945 16.09724 9904 ft 259 kts 310°
2026-04-25 07:45 48.11061 16.07662 10054 ft 253 kts 310°
2026-04-25 07:45 48.12183 16.05607 10514 ft 267 kts 312°
2026-04-25 07:45 48.13637 16.03708 10954 ft 288 kts 330°
2026-04-25 07:45 48.15544 16.02560 11401 ft 310 kts 340°
2026-04-25 07:46 48.17650 16.01519 11822 ft 331 kts 340°
2026-04-25 07:46 48.19888 16.00345 12264 ft 349 kts 339°
2026-04-25 07:46 48.22194 15.99113 12697 ft 352 kts 339°
2026-04-25 07:46 48.24499 15.97879 13129 ft 354 kts 339°
2026-04-25 07:47 48.26819 15.96636 13576 ft 356 kts 339°
2026-04-25 07:47 48.29141 15.95394 14023 ft 357 kts 339°
2026-04-25 07:47 48.31498 15.94130 14465 ft 360 kts 338°
2026-04-25 07:47 48.33846 15.92867 14915 ft 364 kts 338°
2026-04-25 07:48 48.36223 15.91587 15357 ft 366 kts 338°
2026-04-25 07:48 48.38630 15.90292 15806 ft 368 kts 338°
2026-04-25 07:48 48.41026 15.89003 16255 ft 369 kts 338°
2026-04-25 07:48 48.43469 15.87687 16710 ft 372 kts 338°
2026-04-25 07:49 48.45890 15.86383 17142 ft 374 kts 338°
2026-04-25 07:49 48.48334 15.85059 17575 ft 377 kts 338°
2026-04-25 07:49 48.50822 15.83709 18032 ft 379 kts 338°
2026-04-25 07:49 48.53295 15.82374 18490 ft 380 kts 338°
2026-04-25 07:50 48.55777 15.81026 18935 ft 383 kts 337°
2026-04-25 07:50 48.58291 15.79657 19401 ft 386 kts 337°
2026-04-25 07:50 48.60836 15.78272 19872 ft 389 kts 337°
2026-04-25 07:50 48.63366 15.76901 20325 ft 391 kts 337°
2026-04-25 07:51 48.65934 15.75506 20784 ft 393 kts 337°
2026-04-25 07:51 48.68501 15.74107 21243 ft 395 kts 337°
2026-04-25 07:51 48.71081 15.72700 21701 ft 398 kts 337°
2026-04-25 07:51 48.73661 15.71286 22159 ft 400 kts 337°
2026-04-25 07:52 48.76303 15.69841 22623 ft 402 kts 337°
2026-04-25 07:52 48.78934 15.68403 23084 ft 404 kts 337°
2026-04-25 07:52 48.81559 15.66957 23542 ft 406 kts 336°
2026-04-25 07:52 48.84137 15.65260 24004 ft 407 kts 330°
2026-04-25 07:53 48.86625 15.63262 24466 ft 408 kts 328°
2026-04-25 07:53 48.89169 15.61245 24933 ft 412 kts 332°
2026-04-25 07:53 48.91786 15.59488 25400 ft 416 kts 333°
2026-04-25 07:53 48.94437 15.57789 25868 ft 419 kts 333°
2026-04-25 07:54 48.97149 15.56036 26350 ft 422 kts 333°
2026-04-25 07:54 48.99813 15.54289 26821 ft 423 kts 333°
2026-04-25 07:54 49.02535 15.52492 27304 ft 426 kts 332°
2026-04-25 07:54 49.05259 15.50693 27786 ft 429 kts 332°
2026-04-25 07:55 49.07966 15.48901 28169 ft 432 kts 332°
2026-04-25 07:55 49.10729 15.47064 28438 ft 434 kts 332°
2026-04-25 07:55 49.13501 15.45222 28712 ft 433 kts 332°
2026-04-25 07:55 49.16242 15.43391 28978 ft 432 kts 332°
2026-04-25 07:56 49.18985 15.41554 29252 ft 431 kts 332°
2026-04-25 07:56 49.21706 15.39732 29520 ft 431 kts 332°
2026-04-25 07:56 49.24440 15.37900 29790 ft 430 kts 332°
2026-04-25 07:56 49.27162 15.36067 30060 ft 428 kts 332°
2026-04-25 07:57 49.29903 15.34220 30334 ft 427 kts 331°
2026-04-25 07:57 49.32608 15.32396 30602 ft 425 kts 331°
2026-04-25 07:57 49.35281 15.30592 30868 ft 425 kts 331°
2026-04-25 07:57 49.37968 15.28777 31136 ft 424 kts 330°
2026-04-25 07:58 49.40670 15.26952 31409 ft 424 kts 330°
2026-04-25 07:58 49.43357 15.25139 31675 ft 423 kts 330°
2026-04-25 07:58 49.46044 15.23317 31942 ft 423 kts 330°
2026-04-25 07:58 49.48736 15.21488 32212 ft 423 kts 330°
2026-04-25 07:59 49.51419 15.19669 32484 ft 422 kts 330°
2026-04-25 07:59 49.54104 15.17841 32752 ft 422 kts 330°
2026-04-25 07:59 49.56760 15.16031 33021 ft 421 kts 330°
2026-04-25 07:59 49.59424 15.14212 33289 ft 420 kts 330°
2026-04-25 08:00 49.62096 15.12383 33560 ft 419 kts 330°
2026-04-25 08:00 49.64727 15.10585 33826 ft 419 kts 330°
2026-04-25 08:00 49.67381 15.08773 34214 ft 416 kts 330°
2026-04-25 08:00 49.70023 15.06966 34598 ft 416 kts 330°
2026-04-25 08:01 49.75491 15.03742 34768 ft 421 kts 335°
2026-04-25 08:01 49.80933 15.00793 34967 ft 413 kts 334°
2026-04-25 08:02 49.86342 14.97793 35162 ft 419 kts 334°
2026-04-25 08:02 49.91822 14.94737 35317 ft 419 kts 334°
2026-04-25 08:03 49.97271 14.91690 35463 ft 414 kts 334°
2026-04-25 08:03 50.02654 14.88663 35536 ft 415 kts 334°
2026-04-25 08:04 50.08105 14.85593 35608 ft 417 kts 334°
2026-04-25 08:04 50.13534 14.82526 35674 ft 416 kts 334°
2026-04-25 08:05 50.18959 14.79460 35746 ft 415 kts 334°
2026-04-25 08:05 50.24372 14.76390 35815 ft 416 kts 334°
2026-04-25 08:06 50.29822 14.73288 35885 ft 415 kts 334°
2026-04-25 08:06 50.35222 14.70209 35955 ft 414 kts 334°
2026-04-25 08:07 50.40623 14.67120 36024 ft 415 kts 334°
2026-04-25 08:07 50.43272 14.65605 36389 ft 408 kts 334°
2026-04-25 08:07 50.45947 14.64069 36499 ft 414 kts 334°
2026-04-25 08:08 50.51423 14.60923 36386 ft 418 kts 334°
2026-04-25 08:08 50.56802 14.57835 36276 ft 411 kts 334°
2026-04-25 08:09 50.62161 14.54736 36176 ft 413 kts 334°
2026-04-25 08:09 50.67543 14.51618 36086 ft 414 kts 334°
2026-04-25 08:10 50.72954 14.48486 35991 ft 414 kts 334°
2026-04-25 08:10 50.75632 14.46929 36101 ft 408 kts 334°
2026-04-25 08:10 50.78281 14.45397 36396 ft 407 kts 334°
2026-04-25 08:11 50.83653 14.42246 36408 ft 417 kts 334°
2026-04-25 08:11 50.89077 14.39129 36405 ft 413 kts 335°
2026-04-25 08:12 50.94632 14.36890 36402 ft 419 kts 344°
2026-04-25 08:12 51.00365 14.35158 36394 ft 417 kts 337°
2026-04-25 08:13 51.05837 14.32297 36353 ft 415 kts 335°
2026-04-25 08:14 51.14066 14.28247 36279 ft 415 kts 336°
2026-04-25 08:14 51.19606 14.25600 36234 ft 417 kts 337°
2026-04-25 08:15 51.25118 14.22955 36191 ft 416 kts 337°
2026-04-25 08:15 51.30662 14.20308 36146 ft 415 kts 337°
2026-04-25 08:16 51.36140 14.17692 36101 ft 415 kts 337°
2026-04-25 08:16 51.41679 14.15038 36050 ft 415 kts 338°
2026-04-25 08:17 51.47233 14.12383 36001 ft 418 kts 338°
2026-04-25 08:17 51.52797 14.09706 35956 ft 418 kts 338°
2026-04-25 08:18 51.58286 14.07071 36224 ft 408 kts 338°
2026-04-25 08:18 51.61016 14.05752 36365 ft 413 kts 338°
2026-04-25 08:18 51.63790 14.04414 36372 ft 420 kts 338°
2026-04-25 08:19 51.69389 14.01706 36376 ft 418 kts 338°
2026-04-25 08:19 51.74915 13.99035 36374 ft 413 kts 338°
2026-04-25 08:20 51.80423 13.96352 36362 ft 422 kts 338°
2026-04-25 08:20 51.86085 13.93583 36340 ft 429 kts 339°
2026-04-25 08:21 51.91747 13.90822 36313 ft 421 kts 339°
2026-04-25 08:21 51.97357 13.88079 36292 ft 424 kts 339°
2026-04-25 08:22 52.02984 13.85318 36266 ft 426 kts 339°
2026-04-25 08:22 52.08631 13.82541 36248 ft 423 kts 339°
2026-04-25 08:23 52.14235 13.79787 36234 ft 424 kts 339°
2026-04-25 08:23 52.19860 13.77008 36222 ft 425 kts 339°
2026-04-25 08:24 52.25483 13.74216 36198 ft 424 kts 339°
2026-04-25 08:24 52.31108 13.71417 36184 ft 423 kts 339°
2026-04-25 08:25 52.36731 13.68609 36164 ft 424 kts 339°
2026-04-25 08:25 52.42365 13.65790 36148 ft 424 kts 339°
2026-04-25 08:26 52.47977 13.62977 36125 ft 424 kts 339°
2026-04-25 08:26 52.53599 13.60156 36105 ft 423 kts 339°
2026-04-25 08:27 52.59206 13.57329 36089 ft 422 kts 339°
2026-04-25 08:27 52.64796 13.54502 36067 ft 423 kts 339°
2026-04-25 08:28 52.70416 13.51657 36051 ft 424 kts 339°
2026-04-25 08:28 52.76007 13.48811 36029 ft 423 kts 339°
2026-04-25 08:29 52.81624 13.45951 36012 ft 423 kts 339°
2026-04-25 08:29 52.87197 13.43103 35992 ft 421 kts 339°
2026-04-25 08:30 52.92798 13.40231 35977 ft 422 kts 339°
2026-04-25 08:30 52.95555 13.38821 36302 ft 414 kts 339°
2026-04-25 08:30 52.98306 13.37410 36474 ft 418 kts 339°
2026-04-25 08:31 53.03933 13.34495 36480 ft 426 kts 338°
2026-04-25 08:31 53.09513 13.31619 36474 ft 419 kts 338°
2026-04-25 08:32 53.15030 13.28767 36483 ft 412 kts 338°
2026-04-25 08:32 53.17755 13.27359 36316 ft 407 kts 338°
2026-04-25 08:32 53.20433 13.25965 36039 ft 404 kts 338°
2026-04-25 08:32 53.23107 13.24571 35772 ft 403 kts 338°
2026-04-25 08:33 53.25774 13.23179 35508 ft 407 kts 338°
2026-04-25 08:33 53.28464 13.21766 35237 ft 410 kts 338°
2026-04-25 08:33 53.31211 13.20330 34960 ft 412 kts 338°
2026-04-25 08:33 53.33918 13.18915 34685 ft 411 kts 338°
2026-04-25 08:34 53.36659 13.17480 34372 ft 411 kts 338°
2026-04-25 08:34 53.39370 13.16065 34066 ft 413 kts 338°
2026-04-25 08:34 53.42115 13.14625 33757 ft 418 kts 338°
2026-04-25 08:34 53.44873 13.13169 33449 ft 420 kts 338°
2026-04-25 08:35 53.47649 13.11702 33139 ft 419 kts 338°
2026-04-25 08:35 53.50433 13.10236 32827 ft 417 kts 338°
2026-04-25 08:35 53.53169 13.08791 32524 ft 415 kts 338°
2026-04-25 08:35 53.55939 13.07330 32214 ft 416 kts 338°
2026-04-25 08:36 53.58684 13.05874 31906 ft 418 kts 338°
2026-04-25 08:36 53.61439 13.04412 31606 ft 420 kts 338°
2026-04-25 08:36 53.64239 13.02927 31293 ft 421 kts 338°
2026-04-25 08:36 53.67012 13.01456 30986 ft 421 kts 338°
2026-04-25 08:37 53.69812 12.99966 30682 ft 421 kts 338°
2026-04-25 08:37 53.72597 12.98481 30361 ft 422 kts 338°
2026-04-25 08:37 53.75354 12.97009 30040 ft 422 kts 338°
2026-04-25 08:37 53.78142 12.95516 29717 ft 422 kts 338°
2026-04-25 08:38 53.80935 12.94014 29399 ft 422 kts 338°
2026-04-25 08:38 53.83728 12.92516 29080 ft 423 kts 339°
2026-04-25 08:38 53.86534 12.91007 28757 ft 424 kts 339°
2026-04-25 08:38 53.89354 12.89494 28434 ft 426 kts 339°
2026-04-25 08:39 53.92174 12.87980 28111 ft 427 kts 339°
2026-04-25 08:39 53.94970 12.86477 27796 ft 429 kts 339°
2026-04-25 08:39 53.97802 12.84941 27468 ft 429 kts 339°
2026-04-25 08:39 54.00676 12.83379 27134 ft 430 kts 339°
2026-04-25 08:40 54.03513 12.81843 26807 ft 430 kts 339°
2026-04-25 08:40 54.06340 12.80307 26478 ft 430 kts 339°
2026-04-25 08:40 54.09183 12.78762 26159 ft 432 kts 339°
2026-04-25 08:40 54.12048 12.77211 25842 ft 433 kts 339°
2026-04-25 08:41 54.14880 12.75677 25521 ft 432 kts 339°
2026-04-25 08:41 54.17739 12.74123 25197 ft 430 kts 339°
2026-04-25 08:41 54.20577 12.72579 24882 ft 427 kts 339°
2026-04-25 08:41 54.23389 12.71042 24575 ft 425 kts 339°
2026-04-25 08:42 54.26201 12.69499 24266 ft 423 kts 339°
2026-04-25 08:42 54.28985 12.67971 23953 ft 421 kts 339°
2026-04-25 08:42 54.31743 12.66454 23646 ft 420 kts 339°
2026-04-25 08:42 54.34519 12.64930 23340 ft 419 kts 339°
2026-04-25 08:43 54.37266 12.63419 23033 ft 416 kts 339°
2026-04-25 08:43 54.40027 12.61907 22728 ft 414 kts 339°
2026-04-25 08:43 54.42729 12.60424 22424 ft 412 kts 339°
2026-04-25 08:43 54.45456 12.58914 22110 ft 409 kts 338°
2026-04-25 08:44 54.48131 12.57424 21807 ft 407 kts 338°
2026-04-25 08:44 54.50824 12.55930 21504 ft 405 kts 338°
2026-04-25 08:44 54.53469 12.54462 21202 ft 403 kts 338°
2026-04-25 08:44 54.56140 12.52981 20895 ft 402 kts 338°
2026-04-25 08:45 54.58774 12.51515 20593 ft 400 kts 338°
2026-04-25 08:45 54.61430 12.50034 20287 ft 398 kts 338°
2026-04-25 08:45 54.64037 12.48580 19990 ft 396 kts 338°
2026-04-25 08:45 54.66625 12.47133 19692 ft 395 kts 338°
2026-04-25 08:46 54.69255 12.45658 19387 ft 393 kts 338°
2026-04-25 08:46 54.71811 12.44221 19090 ft 391 kts 338°
2026-04-25 08:46 54.74401 12.42766 18787 ft 390 kts 338°
2026-04-25 08:46 54.76973 12.41313 18482 ft 387 kts 338°
2026-04-25 08:47 54.79502 12.39891 18188 ft 386 kts 338°
2026-04-25 08:47 54.82069 12.38447 17889 ft 384 kts 338°
2026-04-25 08:47 54.84584 12.37019 17600 ft 383 kts 338°
2026-04-25 08:47 54.87109 12.35586 17301 ft 380 kts 338°
2026-04-25 08:48 54.89591 12.34189 17008 ft 378 kts 338°
2026-04-25 08:48 54.92164 12.33224 16705 ft 383 kts 349°
2026-04-25 08:48 54.94841 12.33428 16410 ft 392 kts
2026-04-25 08:48 54.97426 12.34982 16124 ft 403 kts 20°
2026-04-25 08:49 54.99848 12.37513 15843 ft 406 kts 24°
2026-04-25 08:49 55.02364 12.39563 15528 ft 392 kts 10°
2026-04-25 08:49 55.04955 12.40644 15248 ft 386 kts
2026-04-25 08:49 55.07565 12.41608 14950 ft 384 kts
2026-04-25 08:50 55.10187 12.42686 14654 ft 384 kts
2026-04-25 08:50 55.12753 12.43817 14356 ft 381 kts
2026-04-25 08:50 55.15306 12.44970 14056 ft 380 kts
2026-04-25 08:50 55.17836 12.46125 13763 ft 377 kts
2026-04-25 08:51 55.20386 12.47295 13467 ft 376 kts
2026-04-25 08:51 55.22861 12.48616 13168 ft 378 kts 13°
2026-04-25 08:51 55.25306 12.50383 12870 ft 377 kts 15°
2026-04-25 08:51 55.27682 12.52187 12572 ft 372 kts 15°
2026-04-25 08:52 55.30050 12.53977 12047 ft 374 kts 15°
2026-04-25 08:52 55.32326 12.55686 11512 ft 376 kts 15°